Location: Alsip
(41.6689°N, 87.7387°W)
Time: 15:17:57
(UTC+00:00)

Landsat 7 - Pass Details

Date: 14 July 2020
Orbit: 701 x 703 km, 98.1° (Epoch: 13 August)

Event Time Altitude Azimuth Distance (km) Brightness Sun altitude
Exits shadow 03:07:34 20° 172° (S) 1,584 5.2 -15.6°
Maximum altitude 03:10:50 78° 257° (WSW) 723 3.9 -16.0°
Drops below altitude 10° 03:15:37 10° 345° (NNW) 2,178 7.4 -16.5°
Sets 03:17:53 0° 346° (NNW) 3,100 8.4 -16.8°
